RH
60 51 45 34 33 21 22 17 14 9 9 6 7 7 8 9 10 13 13 15 16 15 14 14 16 23 36 43 45 37 29 29 27 27 26 29 27 26 24 24 27 30 33 35 38 40 41
66 56 46 45 28 22 20 13 11 10 8 6 6 6 7 9 11 14 13 15 19 22 20 21 19 21 34 33 38 34 35 28 29 30 29 31 29 26 25 32 32 32 38 37 34 36 38
78 66 53 45 37 23 16 13 11 10 8 6 5 5 6 8 11 14 13 16 21 25 26 23 22 29 40 44 39 34 33 31 32 32 32 30 30 27 28 31 26 37 39 36 39 37 38
83 74 64 52 44 36 21 14 11 9 10 7 5 5 6 7 10 14 13 17 21 24 24 24 20 34 44 29 34 30 31 30 29 30 30 26 27 25 27 28 25 28 33 40 37 42 43
94 83 70 65 51 45 33 18 11 9 9 7 6 5 5 6 11 14 13 20 21 21 20 26 30 32 42 31 33 31 33 34 31 30 24 23 24 27 24 31 30 26 30 32 37 40 45
94 93 84 72 58 50 44 30 16 10 8 7 6 5 5 6 12 13 15 21 27 28 26 22 22 33 31 34 32 32 34 33 31 28 34 28 32 36 34 34 33 28 26 21 42 43 43
86 90 86 78 67 56 49 44 27 14 9 7 6 4 5 6 13 16 21 27 36 43 32 36 36 32 32 32 32 32 32 34 31 28 37 27 35 30 28 25 20 17 17 18 36 37 43
82 88 92 76 69 66 62 49 42 22 12 8 6 4 5 8 14 25 35 45 57 52 41 32 30 33 32 33 34 35 28 36 32 35 24 33 33 30 29 28 25 25 25 27 32 30 35
77 73 84 89 70 64 67 60 46 36 15 9 7 5 6 11 18 27 27 47 47 53 47 36 33 32 34 36 38 40 34 37 33 29 28 34 34 28 27 28 27 26 28 27 26 28 28
75 86 72 83 87 76 68 66 56 43 24 10 7 5 7 14 32 29 41 38 38 41 48 40 44 34 32 33 42 33 27 36 29 30 26 29 30 31 31 31 27 31 30 24 24 29 26
80 78 82 71 82 88 82 69 65 47 35 11 7 5 9 20 33 39 42 36 40 44 58 39 38 30 28 38 41 41 28 32 31 32 26 30 31 33 33 33 26 30 29 29 30 36 40
88 85 81 79 74 83 86 81 65 51 41 16 7 6 12 29 36 36 36 41 53 63 44 40 39 38 32 30 31 31 30 24 26 27 27 32 30 33 36 34 33 32 31 34 37 47 72
100 96 92 82 83 79 82 88 77 58 46 22 7 8 16 25 43 29 41 56 63 65 24 36 39 34 31 33 31 29 33 31 35 40 35 29 34 37 34 36 36 34 39 56 68 75 60
100 100 100 96 86 86 84 84 82 70 49 28 7 10 25 27 28 35 48 41 38 38 27 32 32 30 32 30 27 31 34 36 32 27 37 51 50 44 34 39 46 42 39 59 46 72 56
93 98 100 100 100 93 90 86 86 76 59 40 7 27 38 33 29 39 52 52 48 38 27 37 31 33 35 30 28 28 31 36 35 29 28 41 32 32 29 28 30 39 48 35 42 44 46
100 100 100 100 100 100 100 97 93 83 69 47 11 40 41 34 29 44 46 48 34 32 29 30 30 29 36 33 26 30 30 30 38 34 31 28 28 32 33 26 28 34 33 45 52 41 52
76 88 98 100 99 100 100 100 100 96 82 49 22 43 42 32 35 56 37 44 34 38 38 31 26 24 20 27 27 26 24 37 32 35 31 29 26 30 28 38 40 43 41 36 43 51 57
96 82 80 98 99 100 100 100 100 100 96 52 51 37 42 38 39 53 43 26 35 39 39 40 34 30 24 22 24 24 24 38 33 34 31 32 33 37 32 23 21 23 32 38 48 37 45
70 91 96 91 100 100 100 100 100 100 100 59 76 59 39 47 42 54 36 39 39 40 42 41 41 36 34 26 26 30 44 43 36 34 34 31 36 48 38 33 28 25 24 25 40 51 47
62 68 91 92 100 87 100 100 100 100 100 79 88 85 66 56 48 41 41 41 41 43 40 38 41 36 36 36 31 37 51 40 34 36 38 35 40 40 50 38 39 34 30 29 35 72 49
64 59 66 82 93 89 95 99 100 100 99 82 92 86 66 79 52 36 39 44 51 45 43 39 41 40 40 41 38 42 53 49 40 44 38 40 48 45 41 40 40 41 36 38 37 38 52
69 62 53 50 56 78 83 100 100 100 99 90 96 94 77 54 36 39 48 42 47 44 48 45 47 44 43 38 37 42 50 49 45 51 44 39 44 41 48 43 38 44 46 46 40 40 40
78 70 65 58 52 48 74 99 100 99 100 97 96 84 93 82 71 45 44 40 43 41 39 35 42 38 46 39 35 35 37 41 43 53 57 47 53 54 62 34 33 47 42 41 42 62 57
90 80 72 70 66 60 51 92 100 98 99 94 92 88 95 95 84 74 46 43 52 42 45 35 30 35 34 28 27 28 32 34 37 39 43 54 52 53 70 44 70 65 63 80 81 92 91
99 98 89 83 78 75 69 67 100 98 100 100 95 92 98 98 86 75 47 46 45 45 45 43 43 36 28 26 33 32 36 32 41 46 44 40 48 55 65 72 52 78 68 68 59 59 89
78 83 94 95 90 80 79 74 86 100 99 100 96 91 97 98 97 86 85 75 90 65 48 55 43 34 31 35 36 42 48 37 50 56 42 40 57 63 66 64 62 59 55 56 73 66 84
82 85 89 94 94 83 74 66 80 100 100 100 98 92 91 99 98 89 98 97 99 97 80 56 49 42 40 38 37 46 55 34 52 60 58 60 62 63 65 77 71 74 54 60 53 55 73
88 88 91 87 80 73 66 69 69 94 100 100 99 99 87 97 96 97 97 98 98 99 96 66 75 68 57 51 47 57 67 45 39 47 56 54 63 72 79 80 69 57 57 58 64 69 59
92 79 69 67 73 78 82 86 73 100 99 100 98 98 91 90 94 96 93 91 98 100 95 92 81 52 55 68 82 68 44 39 41 44 42 48 50 59 57 62 80 56 52 57 56 58 53
Wind_Speed
10 11 11 12 11 10 10 9 9 8 8 8 9 9 10 10 11 9 9 7 6 5 4 3 2 3 2 4 1 8 9 10 5 7 7 4 5 3 3 4 4 5 2 7 6 12 8
10 12 11 11 12 11 10 10 9 9 8 8 9 9 9 10 10 9 9 6 5 5 4 3 3 3 2 2 3 7 8 10 9 9 7 8 3 1 3 4 4 3 7 6 4 5 5
11 12 12 12 12 13 11 10 9 9 9 8 9 10 10 11 11 10 8 5 4 4 4 4 4 4 6 2 2 7 6 7 9 7 2 4 5 4 2 3 2 8 5 3 3 4 3
9 11 12 13 13 13 13 12 10 9 9 8 8 9 11 12 12 10 8 3 3 3 3 3 3 3 2 3 2 6 4 3 4 5 2 3 5 3 3 2 4 2 4 2 4 8 4
11 10 11 13 13 13 13 13 12 12 11 10 10 10 10 11 12 10 6 2 2 2 4 3 3 3 1 1 1 4 5 2 6 2 2 2 2 3 3 4 4 1 3 5 3 8 6
11 11 12 11 13 13 13 13 13 12 11 11 12 12 12 12 11 9 4 1 4 4 3 2 1 4 1 1 2 4 3 2 2 3 3 2 4 3 3 4 4 4 3 3 5 7 5
14 16 13 11 11 12 13 14 15 14 13 11 11 12 11 11 9 7 2 0 4 4 8 2 1 2 2 1 2 2 4 4 1 2 2 1 5 3 5 5 4 2 1 2 1 5 5
13 15 14 10 11 10 12 13 14 15 15 13 12 12 11 11 5 6 3 5 4 2 1 1 0 3 2 1 1 4 8 0 2 2 2 5 2 2 3 3 3 2 1 3 2 1 2
14 15 17 16 12 11 11 12 13 14 15 14 13 13 12 9 2 3 6 5 4 3 2 1 0 2 1 1 1 3 4 2 1 4 4 4 3 2 1 2 2 1 2 2 1 2 4
15 16 17 17 16 14 11 12 12 13 15 14 13 13 12 8 0 1 2 2 2 2 3 3 2 1 1 1 1 1 2 1 0 3 2 2 1 1 1 1 2 1 2 1 2 3 3
16 17 18 17 17 16 15 12 12 12 13 14 13 11 9 7 3 1 0 2 2 1 3 3 2 1 2 2 3 2 1 0 3 3 4 3 2 1 1 1 2 3 1 1 1 1 2
19 19 19 18 17 17 16 15 12 11 11 12 11 10 8 1 2 1 2 2 2 5 6 4 4 4 2 2 2 2 1 1 0 2 2 2 1 2 3 1 2 3 0 3 3 3 1
24 22 21 19 18 17 16 15 13 11 10 11 9 8 5 3 1 2 3 1 4 4 1 4 5 4 3 4 3 4 3 1 4 4 3 2 2 1 2 3 3 2 4 3 4 2 6
17 25 25 23 20 18 17 16 14 13 11 9 8 7 4 4 3 4 2 4 3 4 5 2 3 3 4 5 2 4 3 2 2 2 2 5 5 5 1 1 5 4 5 4 5 3 4
24 19 24 26 25 21 20 17 15 12 11 10 8 4 4 5 4 5 4 2 7 4 4 7 3 3 3 2 2 3 5 4 2 2 7 5 3 2 4 3 1 3 3 2 0 2 1
12 19 23 20 25 23 23 19 17 13 11 9 5 3 6 6 6 4 3 5 4 1 1 4 6 4 6 4 4 5 5 1 4 3 3 1 1 1 1 2 1 1 1 2 2 3 5
22 21 19 17 13 16 23 22 19 14 9 6 2 1 5 8 9 4 4 7 2 2 2 3 3 4 4 6 7 4 2 3 2 2 3 1 2 1 2 4 5 1 2 1 3 4 4
16 19 23 19 15 13 17 18 20 16 11 2 3 3 8 12 2 2 4 4 3 3 1 1 1 1 2 5 4 3 5 1 1 5 5 2 4 4 8 1 0 1 5 6 4 4 4
15 14 18 15 15 13 14 10 17 16 12 10 1 3 2 4 4 3 2 2 2 4 4 5 4 2 1 4 3 4 4 2 1 2 5 4 2 1 3 1 2 4 4 3 4 3 6
15 14 12 14 14 12 13 12 13 17 12 13 2 1 2 1 3 4 5 5 6 1 2 2 3 3 3 3 1 5 3 2 1 2 3 1 3 6 7 3 5 4 5 6 6 4 5
15 15 14 13 15 13 13 20 14 12 12 12 2 4 3 3 5 5 6 7 6 6 2 4 1 5 6 5 4 5 3 2 1 2 1 3 5 3 4 5 3 6 6 8 10 8 9
15 13 13 13 14 13 15 14 21 12 15 6 5 2 2 4 4 9 6 6 10 5 8 6 5 8 7 6 7 8 8 5 5 2 5 1 3 0 3 6 1 4 9 11 14 5 7
15 13 10 9 10 12 12 17 19 19 18 5 4 3 1 3 4 3 3 6 8 9 2 2 8 5 7 4 5 5 4 5 7 8 7 6 4 2 4 3 6 8 12 7 3 3 4
16 15 12 10 8 9 11 13 26 24 22 10 7 7 3 3 3 5 4 2 4 3 5 2 2 5 4 7 7 6 8 7 6 5 2 5 5 3 3 2 3 3 1 3 4 1 1
14 16 15 14 11 10 8 10 25 23 24 19 10 7 3 2 1 2 2 2 5 4 3 3 3 3 6 4 4 3 3 3 2 4 3 2 4 2 2 3 6 2 4 5 5 4 4
21 19 19 17 16 13 10 7 12 30 26 22 16 13 3 4 4 3 3 2 2 3 3 2 3 5 4 2 3 5 5 4 4 1 3 3 4 3 2 3 6 4 2 3 3 4 4
19 22 22 17 17 15 14 11 10 25 29 20 12 14 5 3 2 2 3 3 4 3 2 3 2 2 3 2 2 3 4 3 5 6 4 3 2 6 4 3 7 4 5 3 5 5 6
16 15 18 17 18 18 16 14 12 20 31 19 7 15 3 2 2 2 2 3 2 3 4 3 4 2 1 3 4 4 3 5 3 4 6 6 7 4 2 2 8 6 4 5 4 3 6
10 13 14 16 18 16 13 10 9 30 31 17 5 12 8 8 3 5 7 3 2 3 3 5 1 4 5 4 2 2 1 2 3 3 1 3 4 4 6 3 1 4 2 3 3 5 5
Wind_Direction
358 358 6 5 6 7 4 7 5 8 10 14 13 10 8 4 1 357 353 353 5 17 36 50 87 114 87 56 83 347 358 4 24 20 16 352 29 22 75 93 52 88 121 55 95 81 71
352 350 354 357 358 1 2 3 2 360 1 6 3 2 1 357 354 351 350 352 12 29 47 61 95 100 38 98 33 357 9 14 28 30 27 29 27 16 82 66 74 107 99 117 72 76 95
337 341 341 346 350 350 353 356 355 352 354 359 357 355 352 349 348 348 351 353 16 30 51 72 95 77 64 162 56 9 3 15 25 19 47 23 354 48 20 80 37 131 98 109 146 162 133
330 330 335 337 343 345 349 348 345 343 344 347 352 354 348 346 346 342 346 357 9 27 40 75 95 82 88 79 89 20 35 91 23 19 41 9 6 73 68 99 54 104 91 143 196 163 179
306 312 323 329 332 338 343 346 343 339 337 340 344 347 345 345 345 339 343 3 8 45 43 84 74 95 18 156 350 346 12 360 327 11 36 6 33 105 55 96 38 327 208 193 165 188 145
279 297 308 315 322 328 335 340 340 337 335 338 339 342 343 346 345 346 351 54 76 56 24 41 4 49 207 172 323 344 333 353 357 340 15 51 53 80 38 88 192 218 229 245 192 196 165
266 280 291 297 312 321 327 332 336 336 334 332 332 337 341 346 345 356 2 14 28 5 39 78 358 118 79 12 335 20 355 346 276 37 127 346 82 181 233 186 184 171 238 278 228 177 142
266 278 279 296 293 306 317 326 332 334 332 326 326 332 338 342 354 357 21 78 127 141 53 281 156 85 63 353 133 352 351 80 155 166 118 29 166 216 143 115 109 68 278 277 55 63 143
275 271 274 283 287 295 305 317 325 328 330 328 327 331 336 340 14 27 67 99 120 149 123 208 157 100 176 22 55 322 1 331 166 153 170 155 199 199 191 142 140 212 221 317 162 195 258
278 276 271 274 284 289 297 306 314 321 325 326 326 330 335 337 220 90 71 119 136 146 68 213 228 241 154 2 245 309 347 165 14 143 103 107 220 184 140 223 128 225 349 15 29 66 241
272 274 273 270 275 283 290 294 302 312 321 325 324 329 337 355 336 16 155 145 126 126 7 146 180 162 159 174 146 239 269 118 125 144 105 237 135 122 179 295 335 192 58 88 63 146 29
260 265 268 271 271 274 283 289 295 303 312 318 320 326 333 326 305 213 189 165 124 48 260 176 151 184 144 189 200 147 282 40 125 87 87 128 196 88 144 97 77 173 309 39 54 87 316
259 255 257 263 266 269 273 281 288 294 301 311 318 318 317 272 263 171 167 64 48 144 340 198 198 177 215 177 175 183 178 166 166 102 210 137 177 157 151 134 2 75 60 338 342 344 234
274 267 257 255 257 262 266 271 280 289 298 310 313 299 281 259 209 174 151 51 206 225 200 138 133 146 186 152 184 173 157 201 278 105 126 167 298 170 195 179 172 175 160 164 257 228 271
264 266 271 259 256 255 260 263 270 277 292 308 308 287 254 223 196 182 87 107 212 221 142 148 66 167 222 195 191 161 203 198 161 163 177 162 267 52 42 10 87 202 173 171 225 285 336
296 274 264 266 262 255 252 252 257 264 280 306 317 275 228 181 178 154 89 230 227 158 94 128 201 169 185 196 165 179 188 159 153 54 48 112 247 39 319 2 343 132 205 76 14 273 267
276 283 295 255 256 259 252 250 245 245 257 292 295 342 184 173 158 66 190 227 189 64 65 171 221 182 176 171 178 210 196 15 57 94 58 42 119 328 53 205 187 108 244 132 133 166 209
276 277 272 273 247 253 252 251 241 238 232 184 318 254 168 165 116 198 189 202 157 160 85 210 203 113 126 158 173 228 198 183 342 159 158 177 143 203 219 190 290 169 190 157 153 233 230
267 273 279 276 256 243 255 242 241 234 215 133 119 289 204 197 189 223 239 160 176 149 186 182 176 165 183 175 192 162 147 263 32 146 171 182 209 347 288 327 331 212 206 180 117 99 211
268 263 265 272 258 277 275 241 231 227 209 146 122 242 282 210 271 193 167 203 185 132 155 140 148 118 134 202 223 171 147 192 67 39 102 17 220 201 203 181 138 189 205 201 159 162 229
270 265 261 266 266 266 255 248 216 226 195 157 138 221 239 218 259 226 178 166 148 183 231 179 168 206 171 188 186 198 116 115 3 158 156 145 225 241 259 241 197 210 199 214 209 223 214
273 274 271 269 267 266 254 257 218 210 195 146 146 179 327 289 297 200 174 219 184 158 154 216 201 191 191 181 194 197 142 173 191 161 170 165 257 21 276 266 266 241 231 229 240 235 247
263 265 268 272 275 262 257 239 227 236 202 130 136 106 109 296 336 333 235 208 203 138 252 150 190 136 179 183 115 112 71 75 150 154 179 163 173 119 261 324 339 290 236 218 147 77 159
255 261 263 265 273 281 252 244 230 235 219 183 159 144 129 257 201 210 295 152 158 238 153 155 67 141 162 123 97 61 54 62 84 51 95 162 148 148 263 334 245 255 119 141 128 211 128
253 255 262 264 264 262 282 235 229 237 238 214 177 143 153 235 206 246 266 106 96 61 56 70 24 344 142 87 87 79 6 14 92 50 33 53 144 184 200 222 319 301 216 180 159 258 197
251 260 265 260 264 266 274 273 231 228 230 213 188 162 168 134 219 81 128 155 156 75 38 32 340 20 72 112 141 181 207 199 215 235 4 88 75 142 123 204 247 234 185 114 108 291 206
247 250 255 258 263 272 272 281 239 220 207 204 178 179 140 148 128 157 178 189 141 145 133 136 175 49 17 135 150 188 221 145 186 181 170 137 132 206 212 227 286 208 149 147 92 240 165
254 252 250 258 269 271 275 270 247 218 200 204 170 172 180 104 87 2 91 168 147 158 151 154 87 314 53 178 184 230 194 200 159 152 174 169 157 195 120 169 273 145 80 179 200 106 148
259 267 272 271 269 262 255 248 220 193 202 184 122 164 139 71 98 83 78 85 13 344 130 187 172 154 176 182 211 125 140 117 137 222 256 206 183 180 190 220 310 144 135 127 141 143 163